Garden City, KS

4:19 AM CST on November 19, 2017 (GMT -0600)
Garden City Regional

Weather History for KGCK - January, 2014

Change the Weather History Date:

Sunday, January 26, 2014

  Actual Average Record
Temperature  
Mean Temperature 42 °F 31 °F  
Max Temperature 60 °F 45 °F 74 °F (1951)
Min Temperature 24 °F 18 °F -8 °F (1950)
Degree Days  
Heating Degree Days 23 34  
Month to date heating degree days 846 884  
Since 1 July heating degree days 2967 3007  
Cooling Degree Days 0 0  
Month to date cooling degree days 0 0  
Year to date cooling degree days 0 0  
Moisture  
Dew Point 21 °F    
Average Humidity 48    
Maximum Humidity 72    
Minimum Humidity 23    
Precipitation  
Precipitation 0.00 in 0.01 in 0.43 in (1994)
Month to date precipitation 0.01 0.28  
Year to date precipitation 0.01 0.28  
Sea Level Pressure  
Sea Level Pressure 29.89 in    
Wind  
Wind Speed 15 mph (North)    
Max Wind Speed 48 mph    
Max Gust Speed 60 mph    
Visibility 9 miles    
Events      
T = Trace of Precipitation, MM = Missing Value Source: NWS Daily Summary

Daily Weather History Graph

Daily Weather History Graph

Search for Another Location

Airport or City:

Trip Planner

Search our weather history database for the weather conditions in past years. The results will help you decide how hot, cold, wet, or windy it might be!

Date:

Astronomy

Jan. 26, 2014 Rise Set
Actual Time 7:51 AM CST 5:59 PM CST
Civil Twilight 7:23 AM CST 6:27 PM CST
Nautical Twilight 6:51 AM CST 6:59 PM CST
Astronomical Twilight 6:20 AM CST 7:30 PM CST
Moon 3:30 AM CST (1/26) 1:51 PM CST (1/26)
Length of Visible Light 11h 03m
Length of Day
10h 07m
Waning Crescent, 23% of the Moon is Illuminated
Jan 26
Waning Crescent
Jan 30
New
Feb 6
First Quarter
Feb 14
Full
Feb 22
Last Quarter

Hourly Weather History & Observations

Time (CST) Temp. Windchill Dew Point Humidity Pressure Visibility Wind Dir Wind Speed Gust Speed Precip Events Conditions
12:54 AM 35.1 °F 28.6 °F 23.0 °F 61% 29.84 in 10.0 mi SW 8.1 mph - N/A   Clear
1:54 AM 32.0 °F 24.2 °F 23.0 °F 69% 29.82 in 10.0 mi West 9.2 mph - N/A   Clear
2:54 AM 32.0 °F 23.6 °F 23.0 °F 69% 29.81 in 10.0 mi West 10.4 mph - N/A   Clear
3:54 AM 30.0 °F 22.4 °F 23.0 °F 75% 29.81 in 10.0 mi WNW 8.1 mph - N/A   Clear
4:54 AM 32.0 °F 23.6 °F 23.0 °F 69% 29.80 in 10.0 mi NW 10.4 mph - N/A   Clear
5:54 AM 32.0 °F 22.5 °F 21.9 °F 66% 29.82 in 10.0 mi North 12.7 mph - N/A   Clear
6:54 AM 39.0 °F 30.6 °F 21.9 °F 50% 29.83 in 10.0 mi NNW 15.0 mph - N/A   Clear
7:54 AM 36.0 °F 27.5 °F 21.0 °F 55% 29.86 in 10.0 mi NNW 12.7 mph - N/A   Clear
8:54 AM 37.0 °F 30.4 °F 21.9 °F 54% 29.88 in 10.0 mi NNW 9.2 mph - N/A   Clear
9:54 AM 44.1 °F 38.6 °F 23.0 °F 43% 29.87 in 10.0 mi NW 10.4 mph - N/A   Clear
10:54 AM 51.1 °F - 24.1 °F 35% 29.86 in 10.0 mi North 16.1 mph - N/A   Clear
11:54 AM 54.0 °F - 24.1 °F 31% 29.85 in 10.0 mi North 12.7 mph 20.7 mph N/A   Clear
12:54 PM 55.9 °F - 23.0 °F 28% 29.80 in 10.0 mi North 12.7 mph - N/A   Clear
1:54 PM 57.0 °F - 21.9 °F 26% 29.77 in 10.0 mi NNW 10.4 mph - N/A   Clear
2:54 PM 57.9 °F - 21.9 °F 25% 29.75 in 10.0 mi NNE 9.2 mph - N/A   Clear
3:54 PM 59.0 °F - 21.9 °F 24% 29.75 in 10.0 mi North 9.2 mph - N/A   Clear
4:54 PM 57.9 °F - 21.9 °F 25% 29.78 in 10.0 mi NNW 9.2 mph - N/A   Clear
5:54 PM 48.9 °F - 21.9 °F 35% 29.81 in 10.0 mi North 5.8 mph - N/A   Clear
6:54 PM 39.9 °F 33.9 °F 19.0 °F 43% 29.86 in 10.0 mi North 9.2 mph - N/A   Clear
7:13 PM 45.0 °F 33.4 °F 26.1 °F 48% 29.90 in 1.8 mi NNE 43.7 mph 55.2 mph N/A   Haze
7:24 PM 39.0 °F 24.7 °F 27.0 °F 62% 29.92 in 2.0 mi NNE 47.2 mph 55.2 mph N/A   Haze
7:32 PM 37.0 °F 23.1 °F 25.0 °F 62% 29.94 in 3.0 mi NNE 38.0 mph 59.8 mph N/A   Haze
7:54 PM 34.0 °F 18.9 °F 24.1 °F 67% 30.02 in 7.0 mi NNE 38.0 mph 46.0 mph N/A   Mostly Cloudy
8:06 PM 32.0 °F 16.5 °F 19.9 °F 61% 30.00 in 7.0 mi NNE 35.7 mph 49.5 mph N/A   Scattered Clouds
8:54 PM 30.0 °F 14.7 °F 16.0 °F 56% 30.09 in 10.0 mi NNE 31.1 mph 40.3 mph N/A   Mostly Cloudy
9:54 PM 30.0 °F 15.2 °F 12.0 °F 47% 30.16 in 10.0 mi NNE 28.8 mph 38.0 mph N/A   Overcast
10:54 PM 27.0 °F 11.6 °F 6.1 °F 41% 30.19 in 10.0 mi NE 26.5 mph 33.4 mph N/A   Overcast
11:54 PM 24.1 °F 8.0 °F 3.0 °F 40% 30.24 in 10.0 mi NNE 25.3 mph 36.8 mph N/A   Overcast